SCP
-0 -0 -0 -0 0 0 0 0 0 0 0 0 0 0 0 0 0 0 0 0 0 0 0 0 0 0 0 0 0 0 0 0 0 0 0 0 0 0 0 0 0 0 0 0
-0 -0 -0 -0 -0 0 0 0 0 0 0 0 0 0 0 0 0 0 0 0 0 0 0 0 0 0 0 0 0 0 0 0 0 0 0 0 0 0 0 0 0 0 0 0
-0 -0 -0 -0 -0 0 0 0 0 0 0 0 0 0 0 0 0 0 0 0 0 0 0 0 0 0 0 0 0 0 0 0 0 0 0 0 0 0 0 0 0 0 0 0
-0 -0 -0 -0 -0 0 0 0 0 0 0 0 0 0 0 0 0 0 0 0 0 0 0 0 0 0 0 0 0 0 0 0 0 0 0 0 0 0 0 0 0 0 0 0
-0 -0 -0 -0 -0 0 0 0 0 0 0 0 0 0 0 0 0 0 0 0 0 0 0 0 0 0 0 0 0 0 0 0 0 0 0 0 0 0 0 0 0 0 0 0
-0 -0 -0 -0 -0 0 0 0 0 0 0 0 0 0 0 0 0 0 0 0 0 0 0 0 0 0 0 0 0 0 0 0 0 0 0 0 0 0 0 0 0 0 0 0
-0 -0 -0 -0 -0 0 -0 0 0 0 0 0 0 0 0 0 0 0 0 0 0 0 0 0 0 0 0 0 0 0 0 0 0 0 0 0 0 0 0 0 0 0 0 0
-0 -0 -0 -0 -0 -0 -0 -0 0 0 0 0 0 0 0 0 0 0 0 0 0 0 0 0 0 0 0 0 0 0 0 0 0 0 0 0 0 0 0 0 0 0 0 0
-0 -0 -0 -0 0 -0 -0 0 -0 -0 0 0 0 0 0 0 0 0 0 0 0 0 0 0 0 0 0 0 0 0 0 0 0 0 0 0 0 0 0 0 0 0 0 0
-0 -0 0 0 0 -0 0 0 -0 -0 0 0 0 0 0 0 0 0 0 0 0 0 0 0 0 0 0 0 0 0 0 0 0 0 0 0 0 0 0 0 0 0 0 0
0 0 0 0 -0 -0 -0 -0 -0 -0 -0 0 -0 0 0 0 0 0 0 0 0 0 0 0 0 0 0 0 0 0 0 0 0 0 0 0 0 0 0 0 0 0 0 0
-0 -0 0 0 -0 -0 -0 -0 -0 -0 -0 -0 -0 0 0 0 0 0 0 0 0 0 0 0 0 0 0 0 0 0 0 0 0 0 0 0 0 0 0 0 0 0 0 0
-0 -0 -0 -0 -0 -0 -0 -0 -0 0 0 -0 -0 0 -0 0 0 0 0 0 0 0 0 0 0 0 0 0 0 0 0 0 0 0 0 0 0 0 0 0 0 0 0 0
-0 -0 -0 -0 0 0 -0 -0 0 0 0 -0 -0 0 -0 -0 -0 -0 -0 0 0 0 0 0 0 0 0 0 0 0 0 0 0 -0 -0 -0 -0 0 0 0 -0 -0 -0 -0
-0 -0 0 0 0 0 0 0 -0 0 0 0 0 0 0 0 -0 -0 -0 0 0 0 0 0 0 0 0 0 0 0 0 -0 -0 -0 0 -0 0 0 0 0 -0 -0 -0 0
-0 -0 0 0 0 0 0 0 0 0 0 0 0 0 0 -0 -0 -0 0 0 0 0 0 0 0 0 0 0 0 0 0 0 0 -0 0 0 0 0 0 -0 -0 0 0 0
0 0 0 -0 0 0 0 0 0 0 0 0 0 -0 0 0 0 0 0 0 0 0 0 0 0 0 0 0 0 0 0 0 0 -0 -0 0 -0 -0 -0 0 0 0 0 0
0 0 0 0 0 0 0 0 0 0 0 0 -0 0 0 0 0 0 0 0 0 0 0 0 0 0 0 0 0 0 0 0 0 0 0 0 0 0 0 0 0 0 0 0
0 0 0 0 0 0 0 0 0 0 0 0 -0 -0 -0 -0 -0 0 0 0 0 0 0 0 0 0 0 0 0 -0 0 0 0 -0 0 0 0 0 0 0 0 0 0 0
0 0 0 0 0 0 0 0 0 0 0 0 0 0 -0 -0 -0 -0 -0 0 0 0 0 0 0 -0 0 -0 0 -0 -0 -0 0 0 0 0 0 0 0 0 0 0 -0 0
0 0 0 0 0 0 0 0 0 0 0 0 0 0 0 0 -0 -0 -0 -0 -0 0 0 -0 0 0 0 -0 -0 -0 -0 0 0 -0 -0 0 0 0 0 0 0 0 0 0
0 0 0 0 0 0 0 0 0 0 0 0 0 0 0 0 0 -0 0 -0 -0 0 -0 0 0 0 0 0 0 0 0 0 0 0 0 0 0 0 0 0 0 0 0 0
0 0 0 0 0 0 0 0 0 0 0 0 0 0 0 0 0 0 0 0 0 -0 0 0 -0 -0 -0 -0 0 0 0 0 0 0 0 0 0 0 0 0 0 0 0 0
0 0 0 0 0 0 0 0 0 0 0 0 0 0 0 0 0 0 0 0 0 0 0 0 0 0 0 -0 0 0 0 0 -0 0 0 0 0 0 0 0 0 0 0 0
0 0 0 0 0 0 0 0 0 0 0 0 0 0 0 0 0 0 0 0 0 0 0 0 0 0 0 0 0 0 0 -0 -0 0 0 0 0 0 0 0 0 0 0 0
0 0 0 0 0 0 0 0 0 0 0 0 0 0 0 0 0 0 0 0 0 0 0 0 0 0 0 0 0 0 0 -0 0 0 -0 0 0 0 0 0 0 0 0 0
0 0 0 0 0 0 0 0 0 0 0 0 0 0 0 0 0 0 0 0 0 0 0 0 0 0 0 0 0 0 0 0 0 0 0 0 -0 0 0 0 0 0 0 0
Wind_Speed_500mb
58 50 44 40 30 18 6 4 4 18 21 5 3 5 4 9 6 16 7 4 8 5 4 2 2 6 3 4 3 4 3 3 4 6 10 12 6 6 1 8 8 5 6 9
64 50 43 43 23 16 5 4 9 11 4 3 2 1 3 8 8 10 10 5 9 6 4 3 1 2 3 4 2 5 7 3 9 6 8 3 6 6 6 11 4 3 6 8
71 51 47 47 26 12 3 3 5 9 12 9 2 4 4 4 15 7 7 6 3 3 2 4 3 6 3 4 11 17 12 8 7 10 5 5 6 7 4 2 7 15 3 19
76 51 53 54 27 10 6 7 5 5 5 14 13 5 8 5 10 17 21 5 13 7 3 2 6 7 6 8 6 9 6 10 13 21 17 20 20 18 11 10 11 7 23 20
80 56 51 61 34 13 14 7 6 16 10 8 11 16 14 13 6 14 9 8 15 8 5 6 5 9 5 2 7 6 3 13 14 16 20 25 31 23 31 32 31 30 29 17
83 69 49 54 60 36 18 18 18 10 21 9 6 8 8 14 4 9 11 9 5 19 16 7 9 16 18 7 4 6 6 18 9 13 9 9 15 14 17 17 15 22 9 12
82 77 63 52 54 46 40 24 13 14 9 13 9 8 8 18 13 4 12 17 5 11 10 7 8 28 40 37 24 5 18 14 5 13 7 10 9 5 9 24 18 17 22 20
76 80 75 62 49 46 42 35 22 15 9 6 17 24 13 12 10 8 7 14 6 12 9 1 3 4 3 14 24 17 6 7 9 10 6 4 5 11 10 7 11 15 18 22
61 73 78 73 65 47 43 41 36 25 12 17 7 8 13 8 10 7 6 9 10 1 5 5 4 4 7 4 4 13 19 15 8 7 8 8 7 13 8 6 9 25 23 23
50 54 63 72 72 63 56 49 37 37 27 25 22 14 10 11 8 6 8 15 9 6 4 6 5 2 2 2 4 8 6 7 7 8 6 5 8 11 11 6 9 30 24 21
39 48 50 52 52 56 61 51 54 68 44 40 40 39 24 16 10 7 12 5 5 3 4 2 5 5 5 4 6 6 7 5 5 4 6 5 7 11 7 9 22 26 22 18
29 37 42 44 48 48 43 55 54 55 49 32 37 41 41 35 18 11 7 3 3 1 6 3 5 4 1 2 5 7 3 6 5 6 5 6 5 3 20 17 26 21 19 14
24 29 32 33 36 43 42 36 24 15 18 29 33 36 37 41 36 15 5 4 2 4 5 7 4 8 3 4 6 5 5 2 9 6 9 16 18 18 17 21 18 16 10 8
19 25 35 21 20 25 29 39 35 17 8 6 11 31 33 36 36 22 16 11 15 18 12 9 6 6 6 5 5 6 5 1 7 15 16 17 13 14 18 17 13 10 6 5
17 24 31 27 20 20 20 18 35 22 9 4 7 23 30 29 29 25 17 5 3 6 9 10 6 6 4 5 2 7 4 7 3 5 24 4 22 17 15 12 11 10 10 8
24 24 20 27 23 19 10 10 26 24 7 0 1 8 40 25 23 28 34 34 30 18 10 8 7 7 3 4 5 6 6 4 10 16 19 17 16 13 9 8 10 9 12 13
25 21 14 17 15 21 28 9 25 24 11 3 5 7 19 35 22 26 19 23 19 13 8 10 5 5 5 4 4 6 11 17 27 27 21 11 9 8 5 7 10 13 16 16
18 18 13 8 11 14 17 14 26 31 9 12 6 7 8 34 14 11 22 14 12 19 7 5 7 5 8 6 9 10 13 16 17 14 7 8 8 7 5 9 11 11 10 11
16 14 17 8 8 11 20 9 7 25 20 8 7 7 6 21 17 11 9 10 6 7 7 7 4 2 7 6 12 15 14 8 11 8 5 4 10 14 12 14 20 22 14 16
13 9 4 5 16 16 11 6 5 8 10 10 8 9 5 13 10 11 7 8 4 3 6 3 7 2 2 7 9 10 10 7 6 5 7 8 11 9 15 22 14 18 23 29
16 9 6 12 12 8 7 8 11 12 6 8 10 7 11 8 6 5 8 2 3 2 4 3 3 3 4 3 11 19 18 16 13 14 17 20 23 17 11 9 11 12 13 16
13 11 7 11 11 9 9 5 5 6 5 11 13 14 9 7 6 3 5 3 2 5 3 1 2 1 3 10 13 10 6 4 6 7 8 10 14 7 6 5 10 11 11 11
9 10 5 8 8 14 6 10 4 7 7 8 18 16 7 5 6 2 3 3 4 1 3 1 4 2 2 2 5 7 7 7 7 7 7 5 5 2 3 5 2 4 7 10
8 7 9 5 4 2 2 2 5 11 14 21 22 10 4 4 4 2 3 4 2 2 3 1 3 8 2 4 6 9 4 4 1 2 8 8 9 5 6 11 13 15 19 19
5 5 4 3 2 5 7 11 12 12 19 23 11 6 4 3 2 2 2 4 1 2 1 0 4 10 8 6 6 3 2 6 1 3 7 7 7 9 18 16 18 23 25 27
2 4 2 2 2 5 6 8 11 11 18 17 4 4 4 1 5 4 1 1 3 1 4 3 8 11 7 5 6 1 3 5 5 4 3 3 9 15 20 22 20 21 24 24
1 0 3 6 9 10 10 11 11 16 13 4 3 5 4 3 4 2 3 3 2 2 2 2 10 10 6 5 2 2 0 3 8 10 13 17 19 19 18 16 21 25 28 25
Wind_Direction_500mb
2 359 1 1 1 8 18 45 88 149 147 83 51 168 182 356 359 19 9 58 33 35 57 80 195 221 36 352 276 185 85 87 111 84 94 71 70 96 34 254 197 52 348 122
5 2 5 2 356 8 15 80 102 153 170 162 163 160 103 51 25 32 18 57 28 30 67 286 213 172 42 15 124 161 162 59 146 155 201 166 61 47 96 108 119 141 254 117
11 11 10 4 357 6 32 119 114 62 62 60 53 117 24 100 31 71 2 16 116 115 117 26 183 179 57 85 97 78 86 73 8 264 45 75 115 30 4 280 197 147 85 145
16 16 17 14 13 32 89 52 79 69 35 38 54 56 12 33 12 358 20 86 29 315 246 204 215 194 163 91 123 65 81 99 90 66 77 94 89 68 81 103 108 245 144 145
18 19 23 24 30 43 59 75 109 78 51 12 43 16 13 30 30 9 10 36 347 345 286 303 280 190 217 159 84 81 59 131 125 69 97 98 90 74 81 87 92 95 122 122
23 25 29 33 37 48 66 70 79 92 14 28 66 23 27 30 326 49 47 331 8 26 350 350 69 95 74 85 135 118 113 148 163 143 147 172 94 46 87 101 93 136 152 126
28 31 35 37 34 39 57 64 71 79 49 66 50 37 60 32 24 29 12 19 58 139 60 52 74 77 73 61 44 60 139 127 90 141 190 208 84 60 120 108 106 113 114 138
30 35 39 40 39 41 54 58 78 76 82 40 43 30 14 17 22 36 8 23 6 210 320 277 342 2 79 53 44 39 77 124 106 156 134 83 188 178 175 198 149 149 136 144
34 37 40 42 44 50 60 64 87 97 89 20 333 3 16 12 352 5 1 5 32 130 54 35 28 27 335 52 88 57 65 69 108 149 146 185 79 151 141 141 151 163 151 149
35 38 41 45 44 43 55 62 82 92 85 40 42 31 354 351 344 298 312 338 358 34 71 13 340 47 356 308 49 358 14 27 79 117 105 116 124 139 149 231 107 155 152 153
37 37 42 45 43 41 52 69 71 83 82 62 53 43 28 358 351 331 340 288 45 5 138 253 66 298 63 103 42 20 29 4 69 111 112 170 146 132 209 112 133 148 154 164
36 37 41 46 48 42 48 74 75 82 80 67 60 46 31 17 350 292 314 332 5 33 101 147 140 162 136 37 111 54 68 24 107 12 86 76 149 156 135 138 142 154 159 171
33 27 27 35 42 44 44 50 46 53 75 58 47 30 28 19 14 16 294 341 45 76 93 111 98 90 333 83 78 115 86 92 108 145 112 104 113 116 125 139 141 152 167 181
22 17 12 15 15 21 15 36 36 44 74 62 24 29 27 20 17 32 53 90 100 95 74 74 72 90 21 58 74 63 20 13 115 101 122 125 131 139 149 157 163 167 176 188
352 356 5 5 352 332 324 346 19 23 34 122 43 40 38 32 30 39 55 82 128 81 67 52 65 66 114 82 117 49 353 134 161 146 165 145 154 163 165 182 198 203 219 228
353 346 0 7 19 13 23 4 11 11 29 158 32 7 23 39 41 53 62 69 67 77 74 79 75 49 79 87 79 25 33 74 117 125 138 128 146 161 180 202 219 240 254 253
360 359 6 24 49 37 48 32 3 11 21 38 45 6 4 16 28 28 26 42 48 57 73 54 57 37 35 85 86 93 70 94 120 132 127 129 147 142 181 217 247 271 265 261
344 359 356 349 348 352 3 27 33 22 48 52 40 331 348 6 358 8 7 12 32 36 70 59 26 34 24 76 116 120 118 116 132 152 151 118 165 201 259 262 269 283 280 265
310 315 331 323 358 339 334 351 19 38 45 82 40 341 325 350 9 354 357 15 57 25 55 39 3 15 40 129 140 135 140 139 143 163 205 262 279 273 277 289 272 269 271 284
8 12 47 32 335 330 341 18 49 42 45 60 31 346 316 336 337 10 352 30 35 51 43 4 44 92 43 180 186 183 185 181 201 250 250 258 276 300 304 300 290 280 277 275
20 17 11 351 349 8 32 39 37 0 42 7 347 324 317 330 335 349 16 31 4 45 37 347 34 72 45 351 220 217 224 236 255 272 275 281 288 290 301 330 14 354 328 320
7 357 354 7 22 32 60 18 0 25 353 324 328 330 304 309 331 321 9 360 295 53 346 42 60 208 57 75 89 114 150 229 277 307 315 317 307 268 331 22 321 346 9 3
359 10 17 16 10 45 47 3 356 322 331 323 329 330 327 321 3 16 309 56 58 157 34 14 234 201 156 128 157 104 84 58 57 59 44 23 26 16 44 334 30 18 354 347
11 26 16 39 31 65 216 258 266 300 297 320 320 305 320 317 333 4 335 50 245 26 23 337 189 188 131 80 79 137 123 50 68 45 63 41 28 35 354 308 294 285 296 309
31 45 54 47 318 281 282 297 304 311 310 323 310 295 304 319 300 1 209 211 342 226 264 163 188 178 169 162 150 142 356 350 230 248 293 306 335 321 331 330 309 303 303 309
51 75 122 215 299 285 288 292 303 321 329 329 327 319 301 3 327 276 336 322 243 323 226 274 175 173 176 200 208 205 329 317 318 311 358 308 322 323 331 330 345 343 331 318
98 84 304 246 277 269 281 290 302 313 326 321 332 299 335 307 259 259 176 253 320 265 277 151 177 187 189 188 190 198 316 357 355 333 317 304 298 309 330 351 355 346 337 341
Wind_Speed_850mb
58 50 44 40 30 18 6 4 4 18 21 5 3 5 4 9 6 16 7 4 8 5 4 2 2 6 3 4 3 4 3 3 4 6 10 12 6 6 1 8 8 5 6 9
64 50 43 43 23 16 5 4 9 11 4 3 2 1 3 8 8 10 10 5 9 6 4 3 1 2 3 4 2 5 7 3 9 6 8 3 6 6 6 11 4 3 6 8
71 51 47 47 26 12 3 3 5 9 12 9 2 4 4 4 15 7 7 6 3 3 2 4 3 6 3 4 11 17 12 8 7 10 5 5 6 7 4 2 7 15 3 19
76 51 53 54 27 10 6 7 5 5 5 14 13 5 8 5 10 17 21 5 13 7 3 2 6 7 6 8 6 9 6 10 13 21 17 20 20 18 11 10 11 7 23 20
80 56 51 61 34 13 14 7 6 16 10 8 11 16 14 13 6 14 9 8 15 8 5 6 5 9 5 2 7 6 3 13 14 16 20 25 31 23 31 32 31 30 29 17
83 69 49 54 60 36 18 18 18 10 21 9 6 8 8 14 4 9 11 9 5 19 16 7 9 16 18 7 4 6 6 18 9 13 9 9 15 14 17 17 15 22 9 12
82 77 63 52 54 46 40 24 13 14 9 13 9 8 8 18 13 4 12 17 5 11 10 7 8 28 40 37 24 5 18 14 5 13 7 10 9 5 9 24 18 17 22 20
76 80 75 62 49 46 42 35 22 15 9 6 17 24 13 12 10 8 7 14 6 12 9 1 3 4 3 14 24 17 6 7 9 10 6 4 5 11 10 7 11 15 18 22
61 73 78 73 65 47 43 41 36 25 12 17 7 8 13 8 10 7 6 9 10 1 5 5 4 4 7 4 4 13 19 15 8 7 8 8 7 13 8 6 9 25 23 23
50 54 63 72 72 63 56 49 37 37 27 25 22 14 10 11 8 6 8 15 9 6 4 6 5 2 2 2 4 8 6 7 7 8 6 5 8 11 11 6 9 30 24 21
39 48 50 52 52 56 61 51 54 68 44 40 40 39 24 16 10 7 12 5 5 3 4 2 5 5 5 4 6 6 7 5 5 4 6 5 7 11 7 9 22 26 22 18
29 37 42 44 48 48 43 55 54 55 49 32 37 41 41 35 18 11 7 3 3 1 6 3 5 4 1 2 5 7 3 6 5 6 5 6 5 3 20 17 26 21 19 14
24 29 32 33 36 43 42 36 24 15 18 29 33 36 37 41 36 15 5 4 2 4 5 7 4 8 3 4 6 5 5 2 9 6 9 16 18 18 17 21 18 16 10 8
19 25 35 21 20 25 29 39 35 17 8 6 11 31 33 36 36 22 16 11 15 18 12 9 6 6 6 5 5 6 5 1 7 15 16 17 13 14 18 17 13 10 6 5
17 24 31 27 20 20 20 18 35 22 9 4 7 23 30 29 29 25 17 5 3 6 9 10 6 6 4 5 2 7 4 7 3 5 24 4 22 17 15 12 11 10 10 8
24 24 20 27 23 19 10 10 26 24 7 0 1 8 40 25 23 28 34 34 30 18 10 8 7 7 3 4 5 6 6 4 10 16 19 17 16 13 9 8 10 9 12 13
25 21 14 17 15 21 28 9 25 24 11 3 5 7 19 35 22 26 19 23 19 13 8 10 5 5 5 4 4 6 11 17 27 27 21 11 9 8 5 7 10 13 16 16
18 18 13 8 11 14 17 14 26 31 9 12 6 7 8 34 14 11 22 14 12 19 7 5 7 5 8 6 9 10 13 16 17 14 7 8 8 7 5 9 11 11 10 11
16 14 17 8 8 11 20 9 7 25 20 8 7 7 6 21 17 11 9 10 6 7 7 7 4 2 7 6 12 15 14 8 11 8 5 4 10 14 12 14 20 22 14 16
13 9 4 5 16 16 11 6 5 8 10 10 8 9 5 13 10 11 7 8 4 3 6 3 7 2 2 7 9 10 10 7 6 5 7 8 11 9 15 22 14 18 23 29
16 9 6 12 12 8 7 8 11 12 6 8 10 7 11 8 6 5 8 2 3 2 4 3 3 3 4 3 11 19 18 16 13 14 17 20 23 17 11 9 11 12 13 16
13 11 7 11 11 9 9 5 5 6 5 11 13 14 9 7 6 3 5 3 2 5 3 1 2 1 3 10 13 10 6 4 6 7 8 10 14 7 6 5 10 11 11 11
9 10 5 8 8 14 6 10 4 7 7 8 18 16 7 5 6 2 3 3 4 1 3 1 4 2 2 2 5 7 7 7 7 7 7 5 5 2 3 5 2 4 7 10
8 7 9 5 4 2 2 2 5 11 14 21 22 10 4 4 4 2 3 4 2 2 3 1 3 8 2 4 6 9 4 4 1 2 8 8 9 5 6 11 13 15 19 19
5 5 4 3 2 5 7 11 12 12 19 23 11 6 4 3 2 2 2 4 1 2 1 0 4 10 8 6 6 3 2 6 1 3 7 7 7 9 18 16 18 23 25 27
2 4 2 2 2 5 6 8 11 11 18 17 4 4 4 1 5 4 1 1 3 1 4 3 8 11 7 5 6 1 3 5 5 4 3 3 9 15 20 22 20 21 24 24
1 0 3 6 9 10 10 11 11 16 13 4 3 5 4 3 4 2 3 3 2 2 2 2 10 10 6 5 2 2 0 3 8 10 13 17 19 19 18 16 21 25 28 25
Wind_Direction_850mb
2 359 1 1 1 8 18 45 88 149 147 83 51 168 182 356 359 19 9 58 33 35 57 80 195 221 36 352 276 185 85 87 111 84 94 71 70 96 34 254 197 52 348 122
5 2 5 2 356 8 15 80 102 153 170 162 163 160 103 51 25 32 18 57 28 30 67 286 213 172 42 15 124 161 162 59 146 155 201 166 61 47 96 108 119 141 254 117
11 11 10 4 357 6 32 119 114 62 62 60 53 117 24 100 31 71 2 16 116 115 117 26 183 179 57 85 97 78 86 73 8 264 45 75 115 30 4 280 197 147 85 145
16 16 17 14 13 32 89 52 79 69 35 38 54 56 12 33 12 358 20 86 29 315 246 204 215 194 163 91 123 65 81 99 90 66 77 94 89 68 81 103 108 245 144 145
18 19 23 24 30 43 59 75 109 78 51 12 43 16 13 30 30 9 10 36 347 345 286 303 280 190 217 159 84 81 59 131 125 69 97 98 90 74 81 87 92 95 122 122
23 25 29 33 37 48 66 70 79 92 14 28 66 23 27 30 326 49 47 331 8 26 350 350 69 95 74 85 135 118 113 148 163 143 147 172 94 46 87 101 93 136 152 126
28 31 35 37 34 39 57 64 71 79 49 66 50 37 60 32 24 29 12 19 58 139 60 52 74 77 73 61 44 60 139 127 90 141 190 208 84 60 120 108 106 113 114 138
30 35 39 40 39 41 54 58 78 76 82 40 43 30 14 17 22 36 8 23 6 210 320 277 342 2 79 53 44 39 77 124 106 156 134 83 188 178 175 198 149 149 136 144
34 37 40 42 44 50 60 64 87 97 89 20 333 3 16 12 352 5 1 5 32 130 54 35 28 27 335 52 88 57 65 69 108 149 146 185 79 151 141 141 151 163 151 149
35 38 41 45 44 43 55 62 82 92 85 40 42 31 354 351 344 298 312 338 358 34 71 13 340 47 356 308 49 358 14 27 79 117 105 116 124 139 149 231 107 155 152 153
37 37 42 45 43 41 52 69 71 83 82 62 53 43 28 358 351 331 340 288 45 5 138 253 66 298 63 103 42 20 29 4 69 111 112 170 146 132 209 112 133 148 154 164
36 37 41 46 48 42 48 74 75 82 80 67 60 46 31 17 350 292 314 332 5 33 101 147 140 162 136 37 111 54 68 24 107 12 86 76 149 156 135 138 142 154 159 171
33 27 27 35 42 44 44 50 46 53 75 58 47 30 28 19 14 16 294 341 45 76 93 111 98 90 333 83 78 115 86 92 108 145 112 104 113 116 125 139 141 152 167 181
22 17 12 15 15 21 15 36 36 44 74 62 24 29 27 20 17 32 53 90 100 95 74 74 72 90 21 58 74 63 20 13 115 101 122 125 131 139 149 157 163 167 176 188
352 356 5 5 352 332 324 346 19 23 34 122 43 40 38 32 30 39 55 82 128 81 67 52 65 66 114 82 117 49 353 134 161 146 165 145 154 163 165 182 198 203 219 228
353 346 0 7 19 13 23 4 11 11 29 158 32 7 23 39 41 53 62 69 67 77 74 79 75 49 79 87 79 25 33 74 117 125 138 128 146 161 180 202 219 240 254 253
360 359 6 24 49 37 48 32 3 11 21 38 45 6 4 16 28 28 26 42 48 57 73 54 57 37 35 85 86 93 70 94 120 132 127 129 147 142 181 217 247 271 265 261
344 359 356 349 348 352 3 27 33 22 48 52 40 331 348 6 358 8 7 12 32 36 70 59 26 34 24 76 116 120 118 116 132 152 151 118 165 201 259 262 269 283 280 265
310 315 331 323 358 339 334 351 19 38 45 82 40 341 325 350 9 354 357 15 57 25 55 39 3 15 40 129 140 135 140 139 143 163 205 262 279 273 277 289 272 269 271 284
8 12 47 32 335 330 341 18 49 42 45 60 31 346 316 336 337 10 352 30 35 51 43 4 44 92 43 180 186 183 185 181 201 250 250 258 276 300 304 300 290 280 277 275
20 17 11 351 349 8 32 39 37 0 42 7 347 324 317 330 335 349 16 31 4 45 37 347 34 72 45 351 220 217 224 236 255 272 275 281 288 290 301 330 14 354 328 320
7 357 354 7 22 32 60 18 0 25 353 324 328 330 304 309 331 321 9 360 295 53 346 42 60 208 57 75 89 114 150 229 277 307 315 317 307 268 331 22 321 346 9 3
359 10 17 16 10 45 47 3 356 322 331 323 329 330 327 321 3 16 309 56 58 157 34 14 234 201 156 128 157 104 84 58 57 59 44 23 26 16 44 334 30 18 354 347
11 26 16 39 31 65 216 258 266 300 297 320 320 305 320 317 333 4 335 50 245 26 23 337 189 188 131 80 79 137 123 50 68 45 63 41 28 35 354 308 294 285 296 309
31 45 54 47 318 281 282 297 304 311 310 323 310 295 304 319 300 1 209 211 342 226 264 163 188 178 169 162 150 142 356 350 230 248 293 306 335 321 331 330 309 303 303 309
51 75 122 215 299 285 288 292 303 321 329 329 327 319 301 3 327 276 336 322 243 323 226 274 175 173 176 200 208 205 329 317 318 311 358 308 322 323 331 330 345 343 331 318
98 84 304 246 277 269 281 290 302 313 326 321 332 299 335 307 259 259 176 253 320 265 277 151 177 187 189 188 190 198 316 357 355 333 317 304 298 309 330 351 355 346 337 341